Torna al catalogo

SL-12 R/B(2)

AttivoHEO
NORAD 25525·ROCKET BODY·🇷🇺 Russia

Lanciato Nov 4, 1998 da Baikonur Cosmodrome

Loading…

Prossimi Passaggi (prossime 24 ore)

TLE

AggiornatoSource: Space-Track

Epoca: Sep 8, 2026, 08:28 UTC

1 25525U 98065D   26251.35335834 -.00000199  00000-0  00000-0 0  9997
2 25525  17.2605  89.2580 5237208 269.6991  32.9973  1.88161298191382

Traccia SL-12 R/B(2) in tempo reale con AllMySat

Download on the App Store